PUA2603 SEQM-SEGU

Flight info

Callsign PUA2603
Flight time 0h 33m
Altitude 22000
Route TEMOX3A TEMOX TEMOX2
Aircraft A20N/M-SDE2E3FGHIRWXY/LB1

Departure

Time 2026-04-14 05:41
Airport Mariscal Sucre International Airport (SEQM)

Arrival

Time 2026-04-14 06:14
Airport José Joaquín de Olmedo International Airport (SEGU)
Time Latitude Longitude Altitude Speed Heading
2026-04-14 05:16 -0.12655 -78.35921 7870 ft 0 kts 267°
2026-04-14 05:31 -0.12655 -78.35917 7871 ft 2 kts 270°
2026-04-14 05:31 -0.12656 -78.35902 7872 ft 2 kts 271°
2026-04-14 05:31 -0.12656 -78.35886 7872 ft 2 kts 271°
2026-04-14 05:31 -0.12656 -78.35871 7873 ft 2 kts 271°
2026-04-14 05:32 -0.12657 -78.35857 7874 ft 2 kts 271°
2026-04-14 05:32 -0.12657 -78.35845 7875 ft 0 kts 271°
2026-04-14 05:32 -0.12656 -78.35835 7875 ft 1 kts 232°
2026-04-14 05:32 -0.12648 -78.35830 7875 ft 1 kts 178°
2026-04-14 05:33 -0.12640 -78.35832 7875 ft 1 kts 174°
2026-04-14 05:33 -0.12637 -78.35832 7875 ft 0 kts 177°
2026-04-14 05:34 -0.12643 -78.35832 7875 ft 3 kts 176°
2026-04-14 05:35 -0.12679 -78.35825 7877 ft 6 kts 151°
2026-04-14 05:35 -0.12696 -78.35785 7881 ft 7 kts 88°
2026-04-14 05:35 -0.12694 -78.35721 7886 ft 10 kts 89°
2026-04-14 05:35 -0.12695 -78.35651 7891 ft 9 kts 94°
2026-04-14 05:36 -0.12718 -78.35611 7896 ft 5 kts 150°
2026-04-14 05:36 -0.12744 -78.35603 7898 ft 5 kts 170°
2026-04-14 05:36 -0.12790 -78.35599 7901 ft 9 kts 175°
2026-04-14 05:36 -0.12885 -78.35593 7907 ft 15 kts 177°
2026-04-14 05:37 -0.12981 -78.35590 7913 ft 11 kts 177°
2026-04-14 05:37 -0.13050 -78.35586 7916 ft 9 kts 178°
2026-04-14 05:37 -0.13117 -78.35583 7919 ft 10 kts 178°
2026-04-14 05:37 -0.13206 -78.35581 7922 ft 15 kts 178°
2026-04-14 05:38 -0.13326 -78.35574 7928 ft 18 kts 177°
2026-04-14 05:38 -0.13460 -78.35569 7933 ft 18 kts 177°
2026-04-14 05:38 -0.13579 -78.35564 7938 ft 16 kts 177°
2026-04-14 05:38 -0.13695 -78.35559 7943 ft 15 kts 177°
2026-04-14 05:39 -0.13799 -78.35555 7949 ft 14 kts 177°
2026-04-14 05:39 -0.13899 -78.35551 7954 ft 14 kts 177°
2026-04-14 05:39 -0.13997 -78.35546 7959 ft 13 kts 177°
2026-04-14 05:39 -0.14095 -78.35542 7964 ft 15 kts 177°
2026-04-14 05:40 -0.14218 -78.35524 7969 ft 17 kts 143°
2026-04-14 05:40 -0.14254 -78.35440 7980 ft 10 kts 91°
2026-04-14 05:40 -0.14209 -78.35377 7984 ft 15 kts 10°
2026-04-14 05:40 -0.13898 -78.35379 7971 ft 80 kts 359°
2026-04-14 05:41 -0.13104 -78.35412 7930 ft 145 kts 359°
2026-04-14 05:41 -0.11928 -78.35474 8052 ft 180 kts 356°
2026-04-14 05:41 -0.10752 -78.35542 8792 ft 171 kts 357°
2026-04-14 05:41 -0.09522 -78.35623 9322 ft 181 kts 353°
2026-04-14 05:42 -0.08291 -78.35888 9893 ft 186 kts 343°
2026-04-14 05:42 -0.07001 -78.36304 10281 ft 202 kts 341°
2026-04-14 05:42 -0.05615 -78.36781 10651 ft 218 kts 341°
2026-04-14 05:42 -0.04107 -78.37299 10996 ft 236 kts 341°
2026-04-14 05:43 -0.02472 -78.37858 11287 ft 256 kts 341°
2026-04-14 05:43 -0.00696 -78.38460 11668 ft 274 kts 342°
2026-04-14 05:43 0.01144 -78.39081 12023 ft 291 kts 341°
2026-04-14 05:43 0.03108 -78.39742 12365 ft 309 kts 341°
2026-04-14 05:44 0.05208 -78.40450 12687 ft 326 kts 342°
2026-04-14 05:44 0.07452 -78.41211 12989 ft 344 kts 340°
2026-04-14 05:44 0.09583 -78.42410 13383 ft 357 kts 318°
2026-04-14 05:44 0.11093 -78.44341 14009 ft 362 kts 297°
2026-04-14 05:45 0.12044 -78.46697 14639 ft 366 kts 290°
2026-04-14 05:45 0.12897 -78.49069 15206 ft 371 kts 290°
2026-04-14 05:45 0.13780 -78.51496 15722 ft 376 kts 290°
2026-04-14 05:45 0.14678 -78.53946 16236 ft 380 kts 288°
2026-04-14 05:46 0.15068 -78.56564 16692 ft 384 kts 266°
2026-04-14 05:46 0.14478 -78.59122 17174 ft 385 kts 245°
2026-04-14 05:46 0.13031 -78.61371 17690 ft 385 kts 225°
2026-04-14 05:46 0.10971 -78.63058 18214 ft 385 kts 214°
2026-04-14 05:47 0.08777 -78.64604 18705 ft 388 kts 213°
2026-04-14 05:47 0.06571 -78.66149 19194 ft 391 kts 214°
2026-04-14 05:47 0.04363 -78.67705 19674 ft 394 kts 214°
2026-04-14 05:47 0.02156 -78.69270 20122 ft 398 kts 214°
2026-04-14 05:48 -0.00056 -78.70847 20557 ft 401 kts 214°
2026-04-14 05:48 -0.02307 -78.72456 20984 ft 405 kts 214°
2026-04-14 05:48 -0.04582 -78.74083 21167 ft 416 kts 214°
2026-04-14 05:48 -0.06950 -78.75777 21345 ft 426 kts 214°
2026-04-14 05:49 -0.09354 -78.77499 21509 ft 436 kts 214°
2026-04-14 05:49 -0.11838 -78.79281 21670 ft 446 kts 214°
2026-04-14 05:49 -0.14326 -78.81064 21940 ft 451 kts 214°
2026-04-14 05:49 -0.16855 -78.82877 22242 ft 453 kts 214°
2026-04-14 05:50 -0.19350 -78.84669 22290 ft 452 kts 214°
2026-04-14 05:50 -0.21850 -78.86465 22268 ft 452 kts 214°
2026-04-14 05:50 -0.24369 -78.88273 22243 ft 451 kts 214°
2026-04-14 05:50 -0.26894 -78.90084 22235 ft 452 kts 214°
2026-04-14 05:51 -0.29413 -78.91892 22246 ft 453 kts 214°
2026-04-14 05:51 -0.31987 -78.93739 22240 ft 453 kts 214°
2026-04-14 05:51 -0.34544 -78.95574 22247 ft 453 kts 214°
2026-04-14 05:51 -0.37087 -78.97401 22247 ft 454 kts 214°
2026-04-14 05:52 -0.39637 -78.99229 22242 ft 454 kts 214°
2026-04-14 05:52 -0.42124 -79.01015 22249 ft 454 kts 214°
2026-04-14 05:52 -0.44394 -79.02644 22267 ft 454 kts 214°
2026-04-14 05:52 -0.47062 -79.04562 22265 ft 454 kts 214°
2026-04-14 05:53 -0.49571 -79.06363 22265 ft 454 kts 214°
2026-04-14 05:53 -0.52149 -79.08215 22269 ft 454 kts 214°
2026-04-14 05:53 -0.54674 -79.10023 22265 ft 455 kts 214°
2026-04-14 05:53 -0.57320 -79.11784 22255 ft 454 kts 210°
2026-04-14 05:54 -0.60031 -79.13357 22238 ft 453 kts 207°
2026-04-14 05:54 -0.62860 -79.14782 22221 ft 453 kts 204°
2026-04-14 05:54 -0.65709 -79.16111 22218 ft 453 kts 203°
2026-04-14 05:54 -0.68570 -79.17430 22210 ft 455 kts 203°
2026-04-14 05:55 -0.71475 -79.18769 22181 ft 455 kts 203°
2026-04-14 05:55 -0.74339 -79.20093 22182 ft 455 kts 203°
2026-04-14 05:55 -0.77195 -79.21416 22176 ft 455 kts 203°
2026-04-14 05:55 -0.80071 -79.22750 22169 ft 456 kts 203°
2026-04-14 05:56 -0.82972 -79.24097 22139 ft 443 kts 203°
2026-04-14 05:56 -0.85692 -79.25365 22120 ft 425 kts 203°
2026-04-14 05:56 -0.88330 -79.26594 21995 ft 417 kts 203°
2026-04-14 05:56 -0.90937 -79.27803 21509 ft 415 kts 203°
2026-04-14 05:57 -0.93508 -79.28998 21020 ft 412 kts 203°
2026-04-14 05:57 -0.96098 -79.30202 20539 ft 409 kts 203°
2026-04-14 05:57 -0.98675 -79.31398 20047 ft 406 kts 203°
2026-04-14 05:57 -1.01233 -79.32587 19555 ft 404 kts 203°
2026-04-14 05:58 -1.03791 -79.33775 19054 ft 402 kts 204°
2026-04-14 05:58 -1.06319 -79.34950 18535 ft 400 kts 203°
2026-04-14 05:58 -1.08837 -79.36123 18052 ft 398 kts 204°
2026-04-14 05:58 -1.11334 -79.37283 17569 ft 396 kts 204°
2026-04-14 05:59 -1.13827 -79.38442 17046 ft 395 kts 204°
2026-04-14 05:59 -1.16297 -79.39593 16549 ft 393 kts 204°
2026-04-14 05:59 -1.18782 -79.40749 16092 ft 389 kts 204°
2026-04-14 05:59 -1.21273 -79.41904 15589 ft 386 kts 204°
2026-04-14 06:00 -1.23687 -79.43026 15113 ft 384 kts 204°
2026-04-14 06:00 -1.26148 -79.44173 14625 ft 382 kts 205°
2026-04-14 06:00 -1.28541 -79.45287 14099 ft 380 kts 205°
2026-04-14 06:00 -1.30935 -79.46401 13581 ft 377 kts 205°
2026-04-14 06:01 -1.33303 -79.47503 13115 ft 375 kts 205°
2026-04-14 06:01 -1.35702 -79.48621 12661 ft 371 kts 205°
2026-04-14 06:01 -1.38073 -79.49725 12233 ft 370 kts 205°
2026-04-14 06:01 -1.40446 -79.50830 11678 ft 369 kts 205°
2026-04-14 06:02 -1.42735 -79.51895 11195 ft 357 kts 205°
2026-04-14 06:02 -1.44998 -79.52949 10760 ft 346 kts 205°
2026-04-14 06:02 -1.47112 -79.53932 10529 ft 324 kts 205°
2026-04-14 06:02 -1.49091 -79.54853 10368 ft 301 kts 206°
2026-04-14 06:03 -1.50994 -79.55740 10219 ft 293 kts 206°
2026-04-14 06:03 -1.52846 -79.56603 10135 ft 288 kts 206°
2026-04-14 06:03 -1.54668 -79.57450 10051 ft 286 kts 205°
2026-04-14 06:04 -1.58339 -79.59155 9280 ft 290 kts 205°
2026-04-14 06:04 -1.60209 -79.60023 8918 ft 290 kts 205°
2026-04-14 06:04 -1.62044 -79.60876 8572 ft 289 kts 205°
2026-04-14 06:04 -1.63866 -79.61722 8225 ft 288 kts 205°
2026-04-14 06:05 -1.65694 -79.62573 7905 ft 286 kts 205°
2026-04-14 06:05 -1.67546 -79.63434 7569 ft 285 kts 205°
2026-04-14 06:05 -1.69346 -79.64269 7239 ft 285 kts 205°
2026-04-14 06:05 -1.71154 -79.65110 6857 ft 284 kts 205°
2026-04-14 06:06 -1.72950 -79.65944 6539 ft 282 kts 206°
2026-04-14 06:06 -1.74750 -79.66782 6224 ft 281 kts 205°
2026-04-14 06:06 -1.76535 -79.67612 5875 ft 280 kts 205°
2026-04-14 06:06 -1.78318 -79.68443 5529 ft 279 kts 205°
2026-04-14 06:07 -1.80100 -79.69270 5209 ft 279 kts 205°
2026-04-14 06:07 -1.81882 -79.70100 4847 ft 278 kts 205°
2026-04-14 06:07 -1.83662 -79.70930 4519 ft 277 kts 205°
2026-04-14 06:07 -1.85441 -79.71763 4190 ft 276 kts 206°
2026-04-14 06:08 -1.87191 -79.72578 3858 ft 275 kts 205°
2026-04-14 06:08 -1.88968 -79.73401 3517 ft 273 kts 205°
2026-04-14 06:08 -1.90680 -79.74194 3432 ft 260 kts 205°
2026-04-14 06:08 -1.92283 -79.74937 3431 ft 245 kts 205°
2026-04-14 06:09 -1.93780 -79.75691 3390 ft 237 kts 209°
2026-04-14 06:09 -1.95243 -79.76519 3257 ft 237 kts 210°
2026-04-14 06:09 -1.96646 -79.77339 3161 ft 230 kts 210°
2026-04-14 06:09 -1.98016 -79.78141 3083 ft 220 kts 210°
2026-04-14 06:10 -1.99354 -79.78919 3008 ft 218 kts 211°
2026-04-14 06:10 -2.00664 -79.79677 2847 ft 219 kts 210°
2026-04-14 06:10 -2.01990 -79.80441 2580 ft 218 kts 210°
2026-04-14 06:10 -2.03318 -79.81207 2391 ft 213 kts 210°
2026-04-14 06:11 -2.04562 -79.81923 2323 ft 201 kts 210°
2026-04-14 06:11 -2.05743 -79.82604 2055 ft 187 kts 210°
2026-04-14 06:11 -2.06838 -79.83234 1783 ft 176 kts 210°
2026-04-14 06:11 -2.07842 -79.83813 1544 ft 165 kts 210°
2026-04-14 06:12 -2.08788 -79.84358 1328 ft 154 kts 210°
2026-04-14 06:12 -2.09668 -79.84865 1141 ft 149 kts 210°
2026-04-14 06:12 -2.10538 -79.85366 977 ft 148 kts 210°
2026-04-14 06:12 -2.11400 -79.85863 802 ft 148 kts 210°
2026-04-14 06:13 -2.12271 -79.86365 622 ft 147 kts 211°
2026-04-14 06:13 -2.13112 -79.86850 440 ft 146 kts 210°
2026-04-14 06:13 -2.13965 -79.87340 248 ft 145 kts 211°
2026-04-14 06:13 -2.14782 -79.87804 70 ft 143 kts 211°
2026-04-14 06:14 -2.16015 -79.88573 34 ft 2 kts 325°
2026-04-14 06:14 -2.16003 -79.88586 34 ft 3 kts 305°
2026-04-14 06:15 -2.15996 -79.88612 34 ft 2 kts 299°
2026-04-14 06:15 -2.15956 -79.88600 34 ft 11 kts 26°
2026-04-14 06:15 -2.15869 -79.88551 33 ft 15 kts 31°
2026-04-14 06:15 -2.15771 -79.88493 32 ft 16 kts 30°
2026-04-14 06:16 -2.15715 -79.88502 32 ft 5 kts 305°
2026-04-14 06:16 -2.15694 -79.88535 33 ft 5 kts 301°
2026-04-14 06:16 -2.15691 -79.88540 33 ft 0 kts 299°